FW9789 Weather Reports


Display with metric or nautical units.
time (UTC)temp
F
wind
direction
speed
MPH
gust
MPH
rain 1hr
in
rain 24hr
in
rain mn
in
humidity
%
barometer
mb
20260507075006 44 90 4.0 9.0 0.00 1.04 1.03 17 1022.3
20260507074006 44 45 6.0 9.0 0.00 1.04 1.03 17 1022.0
20260507072006 45 90 2.0 10.0 0.65 1.04 1.03 17 1021.9
20260507071005 46 45 3.0 8.0 0.65 1.04 1.03 17 1021.9
20260507065006 47 180 3.0 9.0 0.65 1.04 1.03 17 1021.7
20260507064006 47 0 1.0 6.0 0.65 1.04 1.03 17 1021.6
20260507063006 43 135 3.0 6.0 0.65 1.04 1.03 17 989.9
20260507062006 47 270 3.0 7.0 0.00 1.04 1.03 17 1021.5
20260507061006 47 45 2.0 6.0 0.00 1.04 1.03 17 1021.4
20260507055006 45 270 3.0 6.0 0.00 1.04 1.03 17 1021.4
20260507054006 45 270 2.0 8.0 0.00 1.04 1.03 17 1021.1
20260507053006 45 270 3.0 6.0 0.00 1.04 1.03 17 1021.1
20260507051006 45 270 2.0 6.0 0.00 1.04 1.03 17 1021.0
20260507045006 44 270 2.0 5.0 0.00 1.04 1.03 17 1021.2
20260507043006 43 270 1.0 5.0 0.00 1.04 1.03 17 1021.1
20260507042005 42 0 1.0 6.0 0.00 1.04 1.03 17 1021.1
20260507041005 41 270 2.0 6.0 0.00 1.04 1.03 17 1021.1
20260507035006 38 225 2.0 6.0 0.00 1.04 1.03 17 1021.0
20260507034005 37 270 1.0 5.0 0.00 1.04 1.03 17 1020.8
20260507032006 35 225 1.0 3.0 0.00 1.04 1.03 17 1020.8
20260507031006 35 225 1.0 2.0 0.00 1.04 1.03 17 1020.6
20260507022005 33 270 1.0 3.0 0.00 1.04 1.03 17 1021.0
20260507021005 33 270 1.0 3.0 0.00 1.04 1.03 17 1020.7
20260507015006 33 270 1.0 3.0 0.00 1.04 1.03 17 1020.4
20260507013007 33 225 1.0 3.0 0.00 1.04 1.03 17 1020.5
20260507011006 33 225 1.0 3.0 0.00 1.04 1.03 17 1020.2
20260507005006 32 225 1.0 3.0 0.00 1.04 1.03 17 1020.2
20260507004006 31 270 1.0 3.0 0.00 1.04 1.03 17 1020.2
20260507002006 32 225 1.0 2.0 0.00 1.04 1.03 17 1020.0
20260507001006 33 270 1.0 2.0 0.00 1.04 1.03 17 1020.0
20260506235006 34 225 1.0 3.0 0.00 1.04 1.03 17 1020.1
20260506234006 34 180 1.0 6.0 0.00 1.04 1.03 17 1019.9
20260506233006 34 225 1.0 3.0 0.00 1.04 1.03 17 1020.0
20260506231005 36 270 1.0 7.0 0.00 1.04 1.03 17 1019.7
20260506225005 37 180 1.0 3.0 0.00 1.04 1.03 17 1019.5
20260506224006 35 180 2.0 5.0 0.00 1.04 1.03 17 1019.4
20260506223005 34 180 1.0 3.0 0.00 1.04 1.03 17 1019.4
20260506222006 36 180 1.0 3.0 0.00 1.04 1.03 17 1019.3
20260506215006 37 270 1.0 3.0 0.00 1.04 1.03 17 1019.3
20260506214006 38 0 2.0 6.0 0.00 1.04 1.03 17 1019.1
20260506213007 39 225 1.0 3.0 0.00 1.04 1.03 17 1019.1
20260506211005 40 270 2.0 6.0 0.00 1.04 1.03 17 1019.0
20260506205006 40 0 2.0 6.0 0.00 1.03 1.03 17 1019.0
20260506204006 41 180 1.0 7.0 0.00 1.03 1.03 17 1019.0
20260506203005 41 270 1.0 5.0 0.00 1.03 1.03 17 1019.0
20260506202006 41 0 2.0 7.0 0.00 1.03 1.03 17 1019.0
20260506195006 41 180 1.0 3.0 0.00 1.03 1.03 17 1018.7
20260506194006 41 135 0.0 5.0 0.00 1.03 1.03 17 1018.7
20260506192006 42 270 2.0 6.0 0.00 1.03 1.03 17 1018.5
20260506191006 42 225 2.0 6.0 0.00 1.03 1.03 17 1018.5
20260506185006 42 270 2.0 8.0 0.00 1.03 1.03 17 1018.3
20260506184006 42 135 1.0 6.0 0.00 1.03 1.03 17 1018.3
20260506183006 43 225 2.0 10.0 0.00 1.03 1.03 17 1018.2
20260506182005 43 45 2.0 13.0 0.00 1.03 1.03 17 1018.4
20260506181006 45 270 2.0 9.0 0.00 1.03 1.03 17 1018.3
20260506174006 45 45 3.0 10.0 0.00 1.03 1.03 17 1018.1
20260506173005 44 270 3.0 13.0 0.00 1.03 1.03 17 1018.0
20260506172005 45 0 2.0 8.0 0.00 1.03 1.03 17 1017.7
20260506171006 44 90 3.0 12.0 0.00 1.03 1.03 17 1017.6
20260506164006 47 0 2.0 12.0 0.00 1.03 1.03 17 1017.7
20260506163006 47 270 3.0 15.0 0.00 1.03 1.03 17 1017.5
20260506162006 47 270 5.0 13.0 0.00 1.03 1.03 17 1017.6
20260506161005 47 270 5.0 13.0 0.00 1.03 1.03 17 1017.5
20260506155006 47 270 3.0 13.0 0.00 1.03 1.03 17 1017.5
20260506154006 47 0 4.0 10.0 0.00 1.03 1.03 17 1017.4
20260506153007 48 270 4.0 13.0 0.00 1.03 1.03 17 1017.5
20260506152006 48 0 5.0 13.0 0.00 1.03 1.03 17 1017.6
20260506145007 50 90 3.0 10.0 0.00 1.03 1.03 17 1017.1
20260506144006 49 270 5.0 10.0 0.00 1.03 1.03 17 1017.3
20260506143006 51 225 3.0 12.0 0.00 1.03 1.03 17 1017.5
20260506142006 52 45 2.0 6.0 0.00 1.03 1.03 17 1017.4
20260506141006 52 0 1.0 8.0 0.00 1.03 1.03 17 1017.2
20260506135006 51 135 2.0 7.0 0.00 1.03 1.03 17 1017.2
20260506134007 51 338 2.0 8.0 0.00 1.03 1.03 17 1017.1
20260506131005 49 180 2.0 8.0 0.00 1.03 1.03 17 1016.9
20260506124005 47 338 2.0 7.0 0.00 1.03 1.03 17 1016.8
20260506123006 47 0 3.0 8.0 0.00 1.03 1.03 17 1016.7
20260506115006 46 315 2.0 13.0 0.73 1.03 1.03 17 1016.2
20260506114006 48 270 4.0 13.0 0.73 1.03 1.03 17 1016.2
20260506113005 35 270 3.0 10.0 0.73 1.03 1.03 17 994.5
20260506112006 49 270 3.0 7.0 0.74 1.03 1.03 17 1016.0
20260506105006 49 270 2.0 7.0 0.74 1.03 1.03 17 1015.6
20260506104005 49 45 3.0 10.0 0.74 1.03 1.03 17 1015.3
20260506103005 36 225 3.0 13.0 0.74 1.03 1.03 17 995.8
20260506102005 46 0 3.0 13.0 0.77 1.03 1.03 17 1015.2
20260506101005 45 90 2.0 8.0 0.77 1.03 1.03 17 1015.0
20260506094005 46 0 3.0 8.0 0.77 1.03 1.03 17 1014.7
20260506093007 36 270 3.0 8.0 0.77 1.03 1.03 17 996.7
20260506092006 43 225 2.0 8.0 0.00 1.03 1.03 17 1014.2
20260506091006 43 225 5.0 15.0 0.00 1.03 1.03 17 1014.3
20260506085006 43 45 2.0 13.0 0.00 1.03 1.03 17 1014.1
20260506084006 43 45 3.0 9.0 0.00 1.03 1.03 17 1013.9
20260506083006 44 225 2.0 6.0 0.00 1.03 1.03 17 1013.8
20260506082005 43 135 1.0 8.0 0.00 1.03 1.03 17 1013.8
20260506081006 43 270 1.0 7.0 0.00 1.03 1.03 17 1013.5